EHI
0 0 0 0 0 0 0 0 0 0 0 0 0 0 0 0 0 0 0 0 0 0 0 0 0 0 0 0 0 0 0 0 0 0 0 0 0 0 0 0 0 0 0
0 0 0 0 0 0 0 0 0 0 0 0 0 0 0 0 0 0 0 0 0 0 0 0 0 0 0 0 0 0 0 0 0 0 0 0 0 0 0 0 0 0 0
0 0 0 0 0 0 0 0 0 0 0 0 0 0 0 0 0 0 0 0 0 0 0 0 0 0 0 0 0 0 0 0 0 0 0 0 0 0 0 0 0 0 0
0 0 0 0 0 0 0 0 0 0 0 0 0 0 0 0 0 0 0 0 0 0 0 0 0 0 0 0 0 0 0 0 0 0 0 0 0 0 0 0 0 0 0
0 0 0 0 0 0 0 0 0 0 0 0 0 0 0 0 0 0 0 0 0 0 0 0 0 0 0 0 0 0 0 0 0 0 0 0 0 0 0 0 0 0 0
0 0 0 0 0 0 0 0 0 0 0 0 0 0 0 0 0 0 0 0 0 0 0 0 0 0 0 0 0 0 0 0 0 0 0 0 0 0 0 0 0 0 0
0 0 0 0 0 0 0 0 0 0 0 0 0 0 0 0 0 0 0 0 0 0 0 0 0 0 0 0 0 0 0 0 0 0 0 0 0 0 0 0 0 0 0
0 0 0 0 0 0 0 0 0 0 0 0 0 0 0 0 0 0 0 0 0 0 0 0 0 0 0 0 0 0 0 0 0 0 0 0 0 0 0 0 0 0 0
0 0 0 0 0 0 0 0 0 0 0 0 0 0 0 0 0 0 0 0 0 0 0 0 0 0 0 0 0 0 0 0 0 0 0 0 0 0 0 0 0 0 0
0 0 0 0 0 0 0 0 0 0 0 0 0 0 0 0 0 0 0 0 0 0 0 0 0 0 0 0 0 0 0 0 0 0 0 0 0 0 0 0 0 0 0
0 0 0 0 0 0 0 0 0 0 0 0 0 0 0 0 0 0 0 0 0 0 0 0 0 0 0 0 0 0 0 0 0 0 0 0 0 0 0 0 0 0 0
0 0 0 0 0 0 0 0 0 0 0 0 0 0 0 0 0 0 0 0 0 0 0 0 0 0 0 0 0 0 0 0 0 0 0 0 0 0 0 0 0 0 0
0 0 0 0 0 0 0 0 0 0 0 0 0 0 0 0 0 0 0 0 0 0 0 0 0 0 0 0 0 0 0 0 0 0 0 0 0 0 0 0 0 0 0
0 0 0 0 0 0 0 0 0 0 0 0 0 0 0 0 0 0 0 0 0 0 0 0 0 0 0 0 0 0 0 0 0 0 0 0 0 0 0 0 0 0 0
0 0 0 0 0 0 0 0 0 0 0 0 0 0 0 0 0 0 0 0 0 0 0 0 0 0 0 0 0 0 0 0 0 0 0 0 0 0 0 0 0 0 0
0 0 0 0 0 0 0 0 0 0 0 0 0 0 0 0 0 0 0 0 0 0 0 0 0 0 0 0 0 0 0 0 0 0 0 0 0 0 0 0 0 0 0
0 0 0 0 0 0 0 0 0 0 0 0 0 0 0 0 0 0 0 0 0 0 0 0 0 0 0 0 0 0 0 0 0 0 0 0 0 0 0 0 0 0 0
0 0 0 0 0 0 0 0 0 0 0 0 0 0 0 0 0 0 0 0 0 0 0 0 0 0 0 0 0 0 0 0 0 0 0 0 0 0 0 0 0 0 0
0 0 0 0 0 0 0 0 0 0 0 0 0 0 0 0 0 0 0 0 0 0 0 0 0 0 0 0 0 0 0 0 0 0 0 0 0 0 0 0 0 0 0
0 0 0 0 0 0 0 0 0 0 0 0 0 0 0 0 0 0 0 0 0 0 0 0 0 0 0 0 0 0 0 0 0 0 0 0 0 0 0 0 0 0 0
0 0 0 0 0 0 0 0 0 0 0 0 0 0 0 0 0 0 0 0 0 0 0 0 0 0 0 0 0 0 0 0 0 0 0 0 0 0 0 0 0 0 0
0 0 0 0 0 0 0 0 0 0 0 0 0 0 0 0 0 0 0 0 0 0 0 0 0 0 0 0 0 0 0 0 0 0 0 0 0 0 0 0 0 0 0
0 0 0 0 0 0 0 0 0 0 0 0 0 0 0 0 0 0 0 0 0 0 0 0 0 0 0 0 0 0 0 0 0 0 0 0 0 0 0 0 0 0 0
0 0 0 0 0 0 0 0 0 0 0 0 0 0 0 0 0 0 0 0 0 0 0 0 0 0 0 0 0 0 0 0 0 0 0 0 0 0 0 0 0 0 0
0 0 0 0 0 0 0 0 0 0 0 0 0 0 0 0 0 0 0 0 0 0 0 0 0 0 0 0 0 0 0 0 0 0 0 0 0 0 0 0 0 0 0
0 0 0 0 0 0 0 0 0 0 0 0 0 0 0 0 0 0 0 0 0 0 0 0 0 0 0 0 0 0 0 0 0 0 0 0 0 0 0 0 0 0 0
Wind_Speed
2 2 2 2 2 2 3 4 3 3 3 4 4 4 4 4 4 4 4 4 5 4 4 4 5 4 3 3 3 3 4 4 6 4 3 2 3 3 4 3 4 4 5
1 1 2 2 2 2 3 3 3 3 3 4 4 4 5 5 5 5 5 5 5 5 5 5 5 4 4 4 3 4 4 4 5 6 4 3 4 4 4 4 4 4 4
1 1 1 1 2 3 3 3 3 3 3 3 4 5 5 5 5 5 5 5 5 5 5 6 6 5 6 4 4 5 4 4 4 5 5 3 3 3 3 4 4 4 5
1 1 1 2 2 3 3 3 3 3 3 4 4 4 5 5 5 5 5 5 5 5 5 5 5 6 7 6 5 5 5 4 4 5 5 4 3 3 3 3 4 3 4
1 1 2 2 2 2 2 3 3 3 3 3 3 4 4 4 5 5 5 5 5 4 4 5 5 7 8 7 5 5 5 5 4 5 5 4 4 3 4 3 4 4 5
1 2 2 2 2 2 2 2 2 2 3 3 3 3 4 4 7 8 6 5 5 5 5 4 5 6 8 9 10 9 8 7 6 6 5 6 6 5 4 4 4 4 5
1 2 2 2 2 2 2 2 2 2 2 2 3 3 4 5 7 8 8 5 4 4 5 4 4 5 6 5 7 9 9 10 10 7 7 8 6 4 4 5 5 5 6
2 2 2 2 2 3 2 2 2 2 2 2 2 2 3 4 7 7 7 4 3 4 5 5 5 5 6 6 5 5 5 6 7 6 7 7 6 5 5 6 6 6 6
2 2 2 2 2 2 2 2 2 2 2 1 2 2 2 4 6 7 6 2 3 4 4 5 5 5 8 9 6 5 5 6 7 9 9 8 9 9 7 3 4 4 6
3 3 3 2 2 2 3 2 2 1 1 1 2 2 2 4 6 7 6 2 2 3 3 4 7 7 8 8 5 5 6 5 4 5 6 6 6 7 9 6 5 5 4
3 3 2 2 2 2 2 1 1 1 1 1 2 2 3 4 6 7 6 2 2 2 3 3 3 8 9 9 7 5 7 6 3 4 4 4 3 3 4 4 4 5 5
2 3 3 3 2 2 1 2 1 1 1 1 1 2 2 3 5 6 6 5 4 2 3 2 3 7 8 8 6 7 9 7 3 3 4 4 4 4 4 4 5 5 5
2 3 3 3 2 2 1 2 1 1 1 1 1 2 2 2 4 7 7 6 6 3 2 4 5 6 6 5 6 8 6 3 3 3 4 4 4 4 3 3 4 4 5
2 3 3 2 2 2 2 1 1 1 1 2 2 2 2 2 3 3 3 3 4 3 2 4 6 6 5 4 5 4 3 3 3 3 4 3 3 3 3 3 3 3 3
2 2 2 2 2 2 2 2 2 2 3 2 2 2 2 3 4 6 4 3 2 2 2 1 1 2 2 2 2 2 2 2 3 3 3 3 4 4 4 3 3 3 4
2 2 2 2 2 2 2 2 4 4 6 6 5 4 4 5 7 7 6 6 6 4 2 1 1 2 2 2 2 2 2 2 3 3 3 4 4 4 4 3 3 3 4
2 2 2 2 2 2 2 2 3 4 5 5 6 6 6 6 7 7 7 6 6 3 1 1 2 2 2 2 3 3 3 3 3 3 3 4 4 4 4 4 4 4 4
3 3 3 2 2 2 2 2 2 2 3 3 5 7 7 6 7 7 7 5 3 2 1 2 2 3 3 3 3 3 3 3 3 3 4 4 4 4 4 4 4 4 4
3 2 2 2 2 2 2 2 2 2 2 3 3 4 6 7 7 7 5 2 2 2 2 2 2 3 3 3 3 3 3 3 3 3 4 4 4 4 4 4 4 6 5
3 4 3 2 2 2 2 2 2 2 2 3 3 3 4 3 3 3 3 2 2 2 2 2 2 3 3 3 3 3 3 3 4 3 4 3 4 4 5 5 4 4 4
2 3 3 2 2 2 2 2 2 2 2 3 3 4 5 2 2 2 2 2 2 2 3 3 3 3 3 3 3 4 4 4 4 4 4 3 3 4 4 4 4 4 4
2 2 2 2 2 2 2 2 2 2 2 3 3 4 6 3 2 2 2 3 3 3 3 3 3 3 3 3 3 4 4 4 4 3 3 4 4 4 4 4 4 4 4
2 2 2 2 2 3 3 2 2 2 2 3 3 3 3 3 2 2 3 3 3 3 3 3 3 3 3 3 3 4 4 5 4 4 4 4 4 4 4 4 5 5 5
2 2 2 2 2 2 2 2 2 2 2 3 3 3 3 3 3 3 3 3 3 3 3 3 3 4 6 5 4 4 4 5 4 4 5 5 4 4 4 4 5 5 5
2 2 2 2 2 2 3 3 2 2 3 3 3 3 3 3 3 3 3 3 4 4 4 4 3 4 5 7 6 5 7 10 9 5 4 4 5 5 5 5 5 5 5
2 2 2 2 2 2 2 3 3 3 3 3 3 3 3 3 4 4 4 3 3 4 4 4 5 6 7 6 7 8 10 11 10 9 5 4 4 4 4 4 5 4 4
Wind_Direction
229 224 211 213 218 219 225 231 232 243 236 225 225 222 222 223 219 218 223 220 220 228 224 220 228 223 221 221 221 223 224 221 248 269 260 260 249 259 278 271 266 263 268
261 239 229 224 225 231 240 243 236 239 243 236 227 224 224 223 218 218 226 228 224 227 223 221 229 225 227 227 222 228 232 227 234 262 269 259 255 256 262 268 276 274 266
292 274 270 248 236 240 246 254 250 242 244 243 230 225 227 225 222 224 225 228 231 231 225 224 227 221 230 230 229 231 236 239 232 247 265 257 253 259 270 276 273 268 274
326 296 273 266 256 253 253 251 249 244 242 242 239 235 232 230 229 228 227 230 233 233 233 231 230 225 230 227 230 232 234 240 237 245 260 262 250 248 244 262 278 267 274
332 306 284 287 286 278 267 255 251 249 248 248 245 245 242 235 229 228 228 228 227 231 236 237 236 236 237 236 236 230 229 235 240 244 254 262 249 244 243 249 266 279 275
323 307 314 316 307 294 285 279 268 263 260 253 250 246 248 246 242 240 236 229 226 227 236 241 242 243 246 250 252 249 240 236 235 240 248 254 253 245 251 255 262 276 278
311 318 325 321 311 301 297 297 282 273 270 264 255 246 246 250 249 249 246 240 227 228 231 238 247 246 252 245 253 256 254 253 246 240 247 254 258 248 244 253 252 259 264
319 323 322 320 312 310 308 299 294 291 275 271 269 257 252 256 258 257 254 247 236 234 232 232 237 243 242 243 243 250 253 257 256 249 244 251 254 247 234 243 253 265 274
319 314 309 305 305 310 306 300 303 308 308 305 291 281 269 272 267 266 262 239 240 243 240 236 235 237 245 249 245 249 261 265 269 268 269 267 268 267 261 248 247 256 271
298 298 299 299 296 295 293 301 313 308 304 306 304 301 287 282 276 268 264 241 241 251 253 251 250 250 251 252 239 238 253 259 259 273 273 272 267 264 263 242 229 241 262
303 308 310 305 295 286 288 297 299 305 325 319 306 302 292 288 290 279 271 257 239 250 256 257 260 262 260 258 255 242 253 262 254 254 259 263 261 254 253 245 234 233 241
312 313 315 311 304 305 310 311 310 305 324 313 309 308 300 295 297 291 286 278 268 250 254 256 256 269 273 272 268 264 266 267 252 249 253 256 258 258 257 255 248 245 247
323 318 315 317 319 313 299 298 303 289 275 291 301 302 305 303 300 303 301 293 282 274 256 262 270 272 276 275 272 274 271 253 246 248 251 253 256 261 263 264 260 257 260
313 315 316 319 320 321 308 293 289 282 276 274 280 290 296 300 300 298 295 294 292 281 278 272 271 270 271 276 278 276 262 246 242 248 260 265 266 263 257 250 252 259 268
309 311 314 311 306 310 313 297 288 269 263 269 265 267 280 288 297 305 313 301 301 288 307 306 291 284 274 273 274 268 264 261 256 250 254 264 263 261 261 256 249 249 252
296 304 298 296 297 301 306 314 301 296 298 300 299 294 288 299 310 312 314 316 314 309 322 335 300 290 278 278 274 272 268 264 264 261 256 255 262 262 266 264 254 247 253
274 282 282 286 290 292 294 297 308 312 311 314 315 313 311 315 318 320 321 324 321 321 322 313 288 283 282 280 276 269 266 265 266 261 260 259 261 262 260 260 257 255 258
282 277 281 273 276 279 280 281 285 298 310 314 317 317 320 323 326 327 326 329 325 324 301 282 277 279 281 277 275 271 270 271 266 264 259 257 256 263 264 259 257 258 263
289 281 278 279 279 280 281 281 280 285 293 305 314 318 322 325 328 328 330 324 303 300 295 286 277 275 277 278 275 273 269 267 267 267 265 260 256 257 263 264 264 268 268
290 293 301 294 291 291 285 280 281 284 289 297 301 306 314 323 329 330 334 320 301 291 285 282 281 274 272 274 277 274 272 267 266 264 267 268 263 258 261 263 262 265 265
308 305 311 310 292 285 282 277 279 284 289 294 296 300 311 319 309 308 310 309 299 290 284 280 278 276 271 269 271 272 270 271 265 261 264 265 266 264 263 264 261 262 267
322 318 317 310 300 288 287 281 282 283 288 294 302 308 316 321 303 298 298 297 296 288 282 279 278 276 271 269 269 272 273 271 271 266 265 266 266 264 261 262 263 262 261
335 327 327 322 313 308 315 302 294 292 293 296 301 307 316 318 309 300 296 294 294 294 291 283 281 283 283 277 270 264 266 269 269 265 264 267 265 262 260 258 259 258 258
335 330 326 323 322 318 315 310 307 305 304 304 304 306 310 310 307 305 304 302 302 300 296 290 282 282 288 291 285 276 269 272 271 262 256 256 262 265 261 256 256 253 254
337 330 325 320 322 322 320 316 315 312 309 307 306 307 308 307 305 304 303 300 300 299 299 296 290 289 290 291 289 284 283 287 287 281 260 252 257 260 262 259 257 255 252
338 332 324 320 318 316 314 312 313 313 307 305 302 301 302 302 302 302 302 302 303 301 300 299 297 298 297 294 292 293 295 296 295 291 281 260 257 262 266 264 258 253 251